Regional Weather Roundup
Issued by NWS Goodland, KS

Home | Current Version | Previous Version | Graphics & Text | Print | Product List | Glossary On
Versions: 1 2 3 4 5 6 7 8 9 10 11 12 13 14 15 16 17 18 19 20 21 22 23 24 25 26 27 28 29 30 31 32 33 34 35 36 37 38 39 40 41 42 43 44 45 46 47 48 49 50
000
ASUS43 KGLD 240559
RWRGLD

GOODLAND FORECAST AREA HOURLY WEATHER ROUNDUP
NATIONAL WEATHER SERVICE GOODLAND KS
1200 AM MDT SUN MAY 24 2015

...OFFICIAL OBSERVATIONS...

CITY           SKY/WX    TMP DP  RH WIND       PRES   REMARKS
GOODLAND KS    FOG       55  55 100 SE10      29.93R VSB 1/2
HILL CITY KS   CLOUDY    58  57  97 E13       29.92F
IMPERIAL NEB   LGT RAIN  55  53  93 SE17      29.93S FOG
MCCOOK NEB     CLOUDY    57  56  96 E14       29.92S
AKRON CO       FOG       48  48 100 E8        29.94S VSB 1/2
BURLINGTON CO  CLOUDY    51  49  92 W5        29.95R
LIMON CO       CLOUDY    46  45  96 NE8       29.96R
$$

...UNOFFICIAL OBSERVATIONS...

CITY           SKY/WX    TMP DP  RH WIND       PRES   REMARKS
GOVE KS          N/A     58  32  37 MISG        N/A
LENORA KS        N/A     56  32  40 MISG        N/A
SHARON SPRINGS   N/A     57  56  96 MISG        N/A
TRENTON NEB      N/A     56  32  40 E14         N/A
KIT CARSON CO    N/A     52  49  90 MISG        N/A
$$


USA.gov is the U.S. government's official web portal to all federal, state and local government web resources and services.